Погода в Северном Майами Бич

США     25°55′57″N   80°10′00″W
темп.,
°C
ветер,
м/с
пор.,
м/с
влажн.,
%
обл.,
%
осадки,
мм/ч
давл.,
гПа
погр.,
м
22 сентября, ср
ср2223:00+29в456596 0.0 1016727
02:00+28в346942 0.0 1014797
05:00+28всв237596 0.4 1014633
08:00+28в2373100 0.7 1015680
11:00+30в1160100 2.3 1015834
14:00+33вюв4348100 2.4 10131880
17:00+31юв335262 0.3 10111143
20:00+30юз445967 1.4 1012829
23 сентября, чт
чт2323:00+27з3574100 3.9 1013250
02:00+28юз23687 4.9 1012410
05:00+27з22717 0.0 1011282
08:00+27з11715 0.3 1012260
11:00+30юз225549 0.0 10131170
14:00+33ю234379 0.0 10112050
17:00+32ю4450100 0.8 10101367
20:00+31зсз235499 2.7 10121140
24 сентября, пт
пт2423:00+30сз23598 0.8 1013458
02:00+28зсз34665 0.8 1012308
05:00+27сз236927 0.3 1012238
08:00+27зсз227044 0.3 1014243
11:00+31зсз11545 0.0 10151068
14:00+34в224392 0.0 10132118
17:00+30всв3360100 2.8 1013708
20:00+30в445997 0.6 10141107
25 сентября, сб
сб2523:00+29в34666 0.2 1015716
02:00+28в336827 0.2 1014812
05:00+28в336999 0.1 1014692
08:00+28в22698 0.3 1015679
11:00+30в325723 0.9 10161257
14:00+31в435669 1.8 10161160
17:00+30всв435847 1.4 10151148
20:00+29в446450 2.0 1015857
26 сентября, вс
вс2623:00+28в33687 1.1 1016702
02:00+28в337114 1.3 1016713
05:00+28всв227358 0.3 1015439
08:00+27всв23735 2.0 1016464
11:00+30всв435925 0.6 10171207
14:00+31всв655539 0.9 10161360
17:00+30всв665615 0.6 10151270
20:00+29всв665810 0.6 10161138